Simultaneous Nadir Overpasses (SNOs) Predictions

Prediction of SNOs between AQUA and NPP Satellite Orbit:

Table of predicted SNOs for the next 14.0 days since TLE Epoch: 5/24/2019
Index Date (AQUA) Time (AQUA) Lat,Lon (AQUA) SZA (AQUA ) Date (NPP) Time (NPP) Lat,Lon (NPP) SZA (NPP ) Distance(km) Time Diff (sec)
1 05/25/2019 06:21:52 75.65, -37.45 77.00 05/25/2019 06:21:41 75.65, -37.51 77.03 1.82 11
2 05/25/2019 07:10:56 -76.78, 133.80 104.33 05/25/2019 07:12:02 -76.78, 133.80 104.39 0.15 66
3 05/27/2019 21:49:06 -75.11, -90.73 102.81 05/27/2019 21:48:05 -75.11, -90.70 102.76 0.94 61
4 05/27/2019 22:38:09 76.22, 80.17 75.90 05/27/2019 22:38:25 76.22, 80.19 75.88 0.62 16
5 05/30/2019 14:05:22 -75.69, 26.76 103.86 05/30/2019 14:04:48 -75.70, 26.86 103.86 2.91 34
6 05/30/2019 14:54:34 76.35,-163.56 75.37 05/30/2019 14:55:18 76.34,-163.64 75.35 2.37 44
7 06/02/2019 06:21:48 -75.81, 143.01 104.35 06/02/2019 06:21:42 -75.81, 142.99 104.34 0.44 6
8 06/02/2019 07:10:52 76.84, -45.98 74.43 06/02/2019 07:12:03 76.85, -45.94 74.36 1.16 71
9 06/04/2019 21:49:06 74.94, 88.83 76.37 06/04/2019 21:48:11 74.93, 88.77 76.43 1.80 55
10 06/04/2019 22:38:05 -76.37, -99.38 105.30 06/04/2019 22:38:26 -76.38, -99.28 105.34 2.66 21
11 06/07/2019 14:05:20 75.65,-153.34 75.30 06/07/2019 14:04:52 75.66,-153.27 75.31 2.13 28




NCC Satellite Simultaneous Nadir Overpasses (SNOs) Prediction Service
